THORAD AGENA D DEB, 19391

Orbit data source: Space-Track

THORAD AGENA D DEB, 19391 is space debris in SSO originally from a launch on Wed, 08 Apr 1970 UTC launched from the Air Force Western Test Range (AFWTR). Debris objects in space refer to the collection of defunct objects orbiting the Earth. Examples of debris include non-operational satellites, rocket bodies, and fragments generated from explosions, collisions, or faulty payload assembly.

Loading next visibility...
Identifier
19391, 1970-025PZ
Orbit
SSO
Country
Flag of USUS
Related business
Manufacturer
Unknown
Mission
Spacecraft
Bus & Motor
Unknown
Mass
Unknown
Launch date (UTC)
1970-04-08 (56 years ago)
Launch vehicle
Unknown
Launch site
Air Force Western Test Range (AFWTR)
Object type
Payload
Rocket body
Debris
Shape & HBR
Unknown shape, 1.1 m
Radar Cross Section
Medium (>0.1 m² and <1 m²)

Expand to show TLE details & history
Last TLE update: 1 day ago

TLE from 1 day ago
0 THORAD AGENA D DEB
1 19391U 70025PZ  26207.08239088  .00001142  00000-0  72445-3 0  9995
2 19391  98.7243  60.1359 0141232 187.7037 326.3650 14.01007821924530
Epoch: 2026-07-26T01:58Z
TLE epoch observation values (Epoch: 2026-07-26T01:58:38.572Z)
Latitude
26.54321°
Longitude
-88.93737°
Altitude
808.483 km
Speed
7.495 km/s
True Right ascension
16h 18m 02s
True Declination
26° 24' 25"
Sunlit
Object was in daylight at epoch
Visualization orbit readout
Latitude
Unknown
Longitude
Unknown
Altitude
Unknown
Speed
Unknown
Apparent Right ascension
Unknown
Apparent Declination
Unknown
Sunlit
N/A
Visualization observer readout
Local Sidereal Time
00:49:22
Azimuth
Unknown
Elevation
Unknown
Doppler factor
Unknown
Orbital elements
Apogee altitude
990.105 km
Perigee altitude
784.877 km
Semi-major axis
7,265.628 km
Eccentricity
0.01412
Inclination
98.7243°
RAAN
60.1359°
Arg. of periapsis
187.7037°
True anomaly
325.45524°
Mean anomaly
326.365°
Eccentric anomaly
325.91147°
Mean motion
3.50456 °/min
Orbital period
102.72 mins
BSTAR
0.00072445
Loading maneuver chart data...
Computing Atmospheric mass density...

Documentation

Showing up to 5 results
|